Regional Weather Roundup
Issued by NWS

Home | Current Version | Previous Version | Graphics & Text | Print | Product List | Glossary Off
Versions: 1 2 3 4 5 6 7 8 9 10 11 12 13 14 15 16 17 18 19 20 21 22 23 24 25 26 27 28 29 30 31 32 33 34 35 36 37 38 39 40 41 42 43 44 45 46 47 48 49 50

162
ASUS43 KDMX 260306
RWRIA

WEATHER ROUNDUP FOR IOWA
NATIONAL WEATHER SERVICE DES MOINES IA
1000 PM CDT WED APR 25 2018

NOTE: "FAIR" INDICATES FEW OR NO CLOUDS BELOW 12,000 FEET WITH NO
SIGNIFICANT WEATHER AND/OR OBSTRUCTIONS TO VISIBILITY.

* - THESE STATIONS ARE NOT NWS STATIONS...THUS NOT UNDER NWS
QUALITY CONTROL.  THEY ALSO DO NOT REPORT WEATHER SUCH
AS PRECIPITATION OR FOG.

IAZ001>003-012>014-020>022-031>034-043>046-260400-
   NORTHWEST IOWA

CITY           SKY/WX    TMP DP  RH WIND       PRES   REMARKS
CARROLL *      CLEAR     46  27  46 CALM      30.01S
CHEROKEE *     CLEAR     44  32  62 CALM      30.01S
DENISON *      PTCLDY    45  28  53 CALM      30.03S
LE MARS *      PTCLDY    46  32  57 CALM      30.01S
ORANGE CITY *  CLOUDY    52  30  43 CALM      30.01S
SHELDON *      CLOUDY    46  28  49 S5        29.98F
SIOUX CITY     PTCLDY    46  32  58 SW3       30.01F
SPENCER        CLEAR     47  32  56 E5        30.01S
STORM LAKE *   CLEAR     50  25  37 SE6       30.01F
$$

IAZ055>058-069>071-079>083-090>094-260400-
   SOUTHWEST IOWA

CITY           SKY/WX    TMP DP  RH WIND       PRES   REMARKS
ATLANTIC *     CLEAR     46  36  66 SW5       30.03R
AUDUBON *      CLEAR     41  30  65 CALM      30.04R
CLARINDA *     CLEAR     43  39  87 CALM      30.06S
COUNCIL BLFS * CLEAR     54  32  43 NW6       30.02S
CRESTON *      CLEAR     48  32  53 SW7       30.04R
HARLAN  *      CLEAR     45  30  57 CALM      30.05S
LAMONI         CLEAR     46  37  71 W7        30.02S
RED OAK *      CLEAR     45  36  70 SW5       30.04S
SHENANDOAH *   CLEAR     43  39  87 W6        30.05S
$$

IAZ047>049-059>061-072>074-084-260400-
   CENTRAL IOWA

CITY           SKY/WX    TMP DP  RH WIND       PRES   REMARKS
AMES           CLEAR     50  34  54 N6        30.01S
ANKENY *       CLEAR     48  30  49 N6        30.02S
BOONE *        CLEAR     48  34  57 N8        30.01S
CHARITON *     CLEAR     52  27  37 SW7       30.01S
DES MOINES     CLEAR     57  28  33 NE5       30.01S
GRINNELL*      CLEAR     52  28  40 N5        30.02S
KNOXVILLE *    CLEAR     54  27  35 W3        30.00R
MARSHALLTOWN   CLEAR     46  32  58 N7        30.01S
NEWTON *       CLEAR     52  28  40 N7        30.01S
PELLA *        CLEAR     52  25  36 N3        30.02R
PERRY *        FAIR      51  26  38 NE5       30.01F
$$

IAZ004>006-015-016-023>025-035-036-260400-
   NORTH CENTRAL IOWA

CITY           SKY/WX    TMP DP  RH WIND       PRES   REMARKS
ALGONA *       PTCLDY    50  32  50 E6        30.02F
CLARION *      CLEAR     45  36  70 NE5       30.02F
ESTHERVILLE    CLOUDY    45  38  76 SE6       30.01S
FORT DODGE *   CLEAR     45  35  68 CALM      30.03R
MASON CITY     CLEAR     44  36  73 W5        30.03S
FOREST CITY *  FAIR      43  37  81 CALM      30.03S
WEBSTER CITY * CLEAR     46  34  61 NE3       30.00S
IOWA FALLS *   FAIR      49  36  61 N3        30.03F
$$

IAZ007>011-017>019-026>030-037>042-050>054-066-260400-
   NORTHEAST IOWA

CITY           SKY/WX    TMP DP  RH WIND       PRES   REMARKS
CEDAR RAPIDS   FAIR      50  28  42 N5        29.99S
CHARLES CITY * FAIR      48  34  57 NW5       30.02S
CLINTON *      FAIR      53  29  39 N7        30.00S
DECORAH *      FAIR      52  28  40 CALM      30.00S
DUBUQUE        FAIR      50  28  42 CALM      30.00S
MONTICELLO *   FAIR      45  34  65 CALM      30.00S
OELWEIN *      FAIR      46  34  61 NW5       30.02R
WATERLOO       FAIR      44  32  62 CALM      30.01S
$$

IAZ064-065-067-068-078-260400-
   EAST CENTRAL IOWA

CITY           SKY/WX    TMP DP  RH WIND       PRES   REMARKS
DAVENPORT      FAIR      51  28  41 NE6       30.01S
IOWA CITY      FAIR      49  31  49 CALM      30.01S
MT. PLEASANT * CLEAR     50  30  46 S3        30.00R
MUSCATINE *    FAIR      52  30  43 CALM      30.00S
QUAD CITIES    FAIR      49  33  54 CALM      29.99R
$$

IAZ062-063-075>077-085>089-095>099-260400-
   SOUTHEAST IOWA

CITY           SKY/WX    TMP DP  RH WIND       PRES   REMARKS
BURLINGTON     CLEAR     50  34  54 CALM      29.99R
FAIRFIELD *    CLEAR     52  27  37 CALM      29.99S
FORT MADISON * CLEAR     54  36  50 CALM      30.00S
KEOKUK *       PTCLDY    50  39  66 SW3       29.99S
OSKALOOSA *    FAIR      46  24  42 CALM      30.01R
CENTERVILLE *  FAIR      45  32  61 CALM      30.02S
OTTUMWA        CLEAR     49  30  48 W8        30.00R
WASHINGTON *   CLEAR     50  28  43 N3        30.00F
$$

ABBREVIATIONS USED IN REMARKS
   TC - TEMPERATURES IN CELSIUS
  WCI - WIND CHILL INDEX
   HX - HEAT INDEX
  VSB - VISIBILITY
$$





USA.gov is the U.S. government's official web portal to all federal, state and local government web resources and services.